星链-35143 (STARLINK-35143)

导读

STARLINK-35143是美国于2025年9月3日发射的星链卫星,归属于SpaceX打造的星链星座网络。星链项目旨在构建全球卫星互联网,为全球偏远、欠发达地区等提供高速宽带接入服务。该卫星的发射延续了星链星座持续组网扩容的节奏,助力星链进一步完善全球覆盖与服务能力。

基本信息
目录编号:
65485
目录名称:
STARLINK-35143
国际标识:
2025-195AD
轨道中心:
EARTH
卫星名称:
星链-35143
卫星全名:
星链-35143 (STARLINK-35143)
卫星状态:
在轨 (已飞行283 天)
发射日期:
2025-09-03 UTC
国别 :
美国 (US)
星等 :
--
轨道信息
数据来源 国际轨道数据 AOE轨道数据
星历时间 2026-06-13T14:35:13+0800
7小时前
查看轨道信息
2026-06-13T06:00:00+0800
16小时前
查看轨道信息
半长轴 6848.825km 6848.89km
偏心率 0.000106 0.0000769
轨道倾角 53.159° 53.163°
近地点辐角 100.396° 60.634°
升交点赤经 173.786° 175.454°
平近点角 259.716° 125.413°
近地点 469.962km 470.226km
远地点 471.414km 471.28km
周期 94.012分钟 94.013分钟
每日圈数 15.317177 15.316958
详细信息
固有亮度:
5
最大亮度:
2.5
卫星平台:
Starlink V1.0
覆盖范围:
全球
运营商:
太空探索技术公司
运营商所在国:
美国
制造商(研发单位):
太空探索技术公司
制造商所在国:
美国
使用方式:
暂无
卫星简介
Starlink 计划是 SpaceX 推出的全球卫星互联网项目,通过发射低轨道卫星,为全球尤其是偏远地区提供高速、低延迟的互联网服务。自 2019 年起,Starlink 已部署数千颗卫星,旨在缩小全球数字鸿沟,推动互联网普及。该项目还为军事、航空等行业提供通信支持,带来广泛经济效益。
2D轨道图
3D轨道图
轨道高度分析图
轨道倾角分析图
轨道综合分析图
查看轨道综合分析图